This demonstration page uses our WeatherBlox Daily Observations layout. Learn more.

Hourly Observations for August 15, 2017

Temp ( °F °C ) Dew Point ( °F °C ) Humidity (%) Winds ( mph kmh ) Pressure ( in mb ) Visibility ( mi km ) Precip ( " mm )
12:54 am 00:54 Partly Cloudy 73 22.8 63 17.2 71 71 E 7 11 29.8 1009 10 16.0934 0 0
1:54 am 01:54 Mostly Clear 72 22.2 64 17.8 76 76 E 6 9 29.8 1009 10 16.0934 0 0
2:54 am 02:54 Mostly Clear 71 21.7 65 18.3 81 81 E 5 7 29.8 1009 10 16.0934 0 0
3:54 am 03:54 Clear 71 21.7 66 18.9 84 84 ESE 7 11 29.78 1009 10 16.0934 0 0
4:54 am 04:54 Mostly Cloudy 70 21.1 66 18.9 87 87 E 7 11 29.8 1009 10 16.0934 0 0
5:54 am 05:54 Clear 69 20.6 66 18.9 90 90 ENE 6 9 29.8 1009 10 16.0934 0 0
6:54 am 06:54 Sunny 69 20.6 67 19.4 93 93 E 3 6 29.81 1010 9 14.48406 0 0
7:54 am 07:54 Mostly Cloudy 70 21.1 67 19.4 90 90 N 3 6 29.83 1010 8 12.87472 0 0
8:10 am 08:10 Mostly Cloudy 69 20.6 66 18.9 90 90 NNW 13 20 29.85 1011 9 14.48406 0 0
8:54 am 08:54 Cloudy 68 20 65 18.3 90 90 NNE 13 20 29.85 1011 10 16.0934 0 0
9:54 am 09:54 Cloudy 69 20.6 64 17.8 84 84 NE 10 17 29.87 1012 8 12.87472 0 0
10:01 am 10:01 Cloudy 69 20.6 64 17.8 84 84 ENE 8 13 29.88 1012 8 12.87472 0 0
10:54 am 10:54 Cloudy 70 21.1 65 18.3 84 84 E 14 22 29.88 1012 8 12.87472 0 0
11:54 am 11:54 Cloudy 75 23.9 68 20 79 79 E 10 17 29.87 1011 9 14.48406 0 0
12:54 pm 12:54 Mostly Cloudy 79 26.1 70 21.1 74 74 ESE 10 17 29.84 1011 10 16.0934 0 0
1:08 pm 13:08 Partly Cloudy 80 26.7 70 21.1 71 71 E 10 17 29.83 1010 10 16.0934 0 0
1:35 pm 13:35 Mostly Cloudy 81 27.2 71 21.7 72 72 E 9 15 29.8 1009 10 16.0934 0 0
1:54 pm 13:54 Partly Cloudy 83 28.3 73 22.8 72 72 ESE 13 20 29.8 1009 10 16.0934 0 0
2:54 pm 14:54 Sunny 85 29.4 74 23.3 70 70 ESE 9 15 29.78 1009 10 16.0934 0 0
3:54 pm 15:54 Sunny 87 30.6 73 22.8 63 63 E 6 9 29.78 1009 10 16.0934 0 0
4:54 pm 16:54 Sunny 87 30.6 74 23.3 65 65 E 10 17 29.77 1008 10 16.0934 0 0
5:54 pm 17:54 Mostly Cloudy 87 30.6 71 21.7 59 59 E 16 26 29.74 1007 10 16.0934 0 0
6:54 pm 18:54 Partly Cloudy 85 29.4 71 21.7 63 63 ESE 14 22 29.74 1007 10 16.0934 0 0
7:54 pm 19:54 Mostly Cloudy 84 28.9 69 20.6 61 61 E 12 19 29.77 1008 10 16.0934 0 0
8:13 pm 20:13 Cloudy with Nearby Thunderstorms 76 24.4 67 19.4 74 74 NNE 18 30 29.77 1008 10 16.0934 0 0
8:38 pm 20:38 Cloudy 73 22.8 66 18.9 79 79 N 20 31 29.8 1009 10 16.0934 0 0
8:54 pm 20:54 Cloudy 72 22.2 66 18.9 82 82 NNE 23 37 29.83 1010 10 16.0934 0 0
9:54 pm 21:54 Cloudy 72 22.2 65 18.3 79 79 NE 16 26 29.84 1010 10 16.0934 0 0
10:54 pm 22:54 Mostly Cloudy 70 21.1 65 18.3 84 84 ENE 16 26 29.85 1011 10 16.0934 0 0
11:54 pm 23:54 Mostly Cloudy with Nearby Thunderstorms 69 20.6 66 18.9 90 90 E 14 22 29.82 1010 10 16.0934 0 0.0254

Powered by AerisWeather